Wind_Speed
16 16 16 16 15 15 15 15 15 14 14 14 13 13 12 12 12 11 11 10 10 9 8 7 7 6 6 5 4 4 3 2 2 1 1 1 1 2 2 3 3 3 4
17 17 17 17 17 16 16 16 17 16 16 15 15 14 14 13 13 12 12 12 11 11 10 9 8 8 7 6 5 5 4 4 2 2 2 2 2 2 2 2 3 3 4
19 19 19 18 18 17 17 17 18 18 17 17 17 16 16 15 15 14 14 13 13 12 11 11 10 9 8 7 7 6 5 5 4 3 3 3 3 2 2 2 3 3 4
21 21 20 20 19 19 18 18 19 19 19 19 19 18 18 17 17 16 16 15 14 14 13 12 11 11 10 9 8 7 7 6 5 5 4 4 4 3 3 3 3 3 4
23 23 22 22 21 21 21 20 20 21 21 21 21 20 20 19 19 18 17 17 16 15 14 13 13 12 11 10 10 9 8 7 6 6 6 5 5 5 5 4 4 4 4
26 25 24 24 23 23 23 23 23 23 23 23 22 22 21 21 21 20 19 18 17 17 16 15 14 14 12 12 11 10 10 9 8 7 7 6 6 6 6 5 5 5 5
29 27 27 26 26 25 25 25 25 24 25 25 24 24 23 23 22 22 21 20 19 18 17 17 16 15 14 13 13 12 11 10 9 9 8 8 7 7 7 7 6 6 6
31 30 29 29 28 28 27 27 26 26 26 26 26 26 25 25 24 23 23 22 21 20 20 19 18 17 16 15 14 14 13 12 11 11 10 9 9 8 8 8 8 7 7
33 33 32 31 30 30 29 29 28 28 28 27 27 27 27 26 26 26 25 24 23 22 21 20 20 19 18 17 16 16 15 14 13 13 12 11 10 10 9 9 9 9 9
35 35 34 33 32 31 31 30 29 29 29 29 29 29 29 28 28 28 27 26 25 25 23 22 21 20 20 19 18 17 17 16 15 15 14 14 13 12 11 11 11 11 10
37 36 36 35 34 34 33 32 31 31 31 30 30 30 30 30 30 30 29 29 28 27 26 24 24 23 22 21 20 19 19 18 17 17 16 15 15 14 14 13 13 12 12
39 38 37 37 36 36 35 34 34 33 32 32 32 31 31 32 31 31 31 31 30 28 27 26 26 25 24 24 24 22 21 21 20 19 18 17 17 16 16 15 15 14 14
39 40 40 39 39 38 37 36 35 35 34 34 34 34 33 33 33 32 32 33 32 30 29 28 28 27 26 26 25 25 24 23 22 21 20 19 19 18 17 17 16 16 15
39 40 41 41 41 40 39 38 37 36 36 35 35 35 35 34 34 33 33 34 33 33 32 31 29 29 27 27 26 26 25 25 24 23 21 21 20 20 19 18 18 17 17
40 40 41 42 42 41 41 40 39 39 38 37 37 37 36 36 35 34 34 34 34 34 34 33 31 30 30 28 27 26 26 26 25 25 24 23 22 22 21 20 19 18 18
41 41 42 42 41 42 42 42 41 41 39 38 38 37 38 38 37 36 35 36 35 35 34 34 33 32 31 30 28 27 27 27 27 26 25 25 24 23 23 22 21 20 19
42 42 43 43 42 42 42 43 43 42 40 40 40 39 38 38 38 38 36 37 37 36 35 35 34 33 32 31 31 30 28 28 28 28 27 27 26 25 25 24 24 22 21
42 42 43 44 43 43 43 43 43 42 41 40 40 40 39 39 38 38 38 37 38 38 37 36 36 34 33 33 32 31 30 29 29 28 28 28 28 28 27 26 26 24 23
41 41 42 43 43 43 43 43 42 42 42 41 40 40 39 39 39 39 39 38 38 38 38 38 37 36 35 34 33 32 32 31 31 30 30 29 29 29 29 28 27 26 25
39 41 41 42 42 42 43 43 43 42 42 42 41 40 39 39 40 40 40 39 38 39 39 38 38 37 37 36 35 34 34 33 33 32 31 30 29 29 29 29 28 28 27
38 40 41 42 42 42 43 43 43 43 43 43 43 41 40 40 40 40 40 40 40 40 40 40 40 39 39 38 37 36 36 35 34 34 33 32 32 31 30 30 29 29 29
39 40 40 41 42 42 42 43 44 44 44 44 43 42 41 41 41 40 41 41 41 40 40 40 40 41 40 40 39 38 37 36 36 35 34 34 33 33 32 32 32 30 30
38 39 41 41 42 42 43 43 44 45 46 45 44 43 41 41 42 41 41 41 42 41 40 41 40 40 40 41 41 39 39 38 37 37 37 36 36 35 35 34 34 33 32
39 39 41 42 42 42 42 43 43 45 46 46 45 44 43 41 42 42 41 41 41 40 41 42 42 41 41 41 41 41 40 39 39 38 37 37 36 36 36 35 35 35 35
37 38 39 41 42 42 43 43 44 45 46 46 46 46 45 43 43 44 43 43 43 43 42 42 43 42 42 42 41 41 40 39 40 39 38 37 37 37 37 37 37 36 37
36 37 38 39 41 42 43 43 44 44 46 48 48 47 47 45 43 43 44 44 44 45 44 43 44 44 43 42 42 42 41 41 41 40 39 39 38 38 38 38 38 37 37
Wind_Direction
240 238 237 237 234 234 233 233 232 230 231 231 230 231 230 228 227 226 225 226 227 229 231 232 233 231 227 227 224 222 221 222 228 235 261 317 3 17 21 24 18 15 12
241 239 238 237 235 235 235 235 234 233 233 232 231 232 231 231 232 231 230 232 233 234 235 234 237 235 231 227 224 225 227 229 240 242 251 277 309 333 348 0 1 2 2
241 239 238 236 235 235 236 236 236 235 234 234 232 233 233 234 235 235 235 235 236 237 239 238 239 238 233 228 225 228 231 236 242 253 256 267 286 300 313 328 337 344 349
240 239 238 237 236 236 237 238 238 237 236 235 235 234 235 236 237 237 237 236 237 239 240 240 240 238 235 232 230 232 235 242 244 254 260 262 271 280 293 305 318 327 332
240 239 238 237 238 238 238 239 239 239 238 237 237 236 237 237 237 238 239 238 237 237 239 239 239 240 237 235 235 236 238 244 245 251 257 261 263 270 279 287 295 304 312
240 240 240 239 238 240 240 240 241 241 241 240 238 238 237 236 237 238 239 239 238 238 239 238 239 240 237 237 238 238 240 242 244 248 254 259 263 265 272 279 285 292 300
242 241 240 241 241 241 241 241 241 242 242 242 241 240 238 236 237 237 239 239 240 240 239 239 240 239 239 240 241 240 241 243 244 248 253 258 263 266 270 274 280 286 293
242 242 241 241 242 242 242 241 242 242 243 243 242 242 240 239 238 239 239 240 241 241 240 239 239 240 241 241 242 243 244 245 247 251 255 259 263 265 268 272 276 281 286
242 242 241 240 241 242 242 242 242 243 243 245 244 243 241 240 240 239 239 240 242 242 241 240 239 239 239 241 243 245 245 246 248 253 255 258 261 263 265 268 271 276 280
240 241 240 240 241 242 241 241 242 243 244 245 245 244 243 242 241 240 240 241 242 241 241 240 240 239 239 240 242 244 245 246 249 252 255 257 258 260 262 264 268 273 277
241 240 241 241 240 241 241 241 242 243 244 246 245 244 243 243 242 242 241 241 243 242 241 241 240 239 241 242 242 243 245 247 249 252 254 256 256 258 261 264 267 272 274
241 241 240 241 241 241 240 241 242 243 244 246 247 245 243 243 244 243 242 242 243 242 242 242 241 241 242 244 242 243 245 248 249 252 254 254 255 257 261 264 267 270 272
242 241 240 240 241 241 241 241 243 243 244 245 246 247 245 243 244 244 244 243 243 242 243 242 242 242 243 244 243 244 246 247 250 252 254 255 256 257 260 262 265 267 270
242 242 241 241 241 242 242 241 242 244 244 246 247 247 246 244 243 243 243 244 243 242 242 242 242 242 242 244 244 245 247 248 250 252 254 255 257 258 259 260 262 265 268
243 243 241 241 241 241 241 241 242 244 246 247 248 247 246 244 242 243 243 243 242 243 242 242 242 244 244 244 244 246 248 251 251 252 254 255 256 257 258 259 261 264 265
243 244 241 241 241 241 241 241 242 243 245 246 246 246 246 243 242 243 243 242 242 242 242 243 242 242 243 244 245 247 249 251 252 253 253 255 256 257 257 258 260 262 265
243 243 241 241 241 241 241 241 242 243 243 244 244 245 245 244 243 243 244 244 242 242 242 243 243 243 244 245 245 248 249 250 252 252 253 254 255 255 256 257 259 260 263
243 243 241 241 241 241 241 241 241 242 242 243 244 245 246 245 244 244 243 244 243 243 243 244 244 243 244 245 246 248 250 251 251 253 254 255 255 254 255 256 258 259 262
243 242 241 240 240 241 241 240 240 241 242 242 242 244 245 245 243 243 244 243 243 243 244 245 244 243 243 245 247 249 250 251 252 253 254 254 253 254 254 255 257 259 261
242 240 240 239 239 240 241 241 240 240 240 241 242 245 246 244 242 243 244 244 244 244 244 244 244 244 246 246 248 249 250 252 253 254 254 253 253 254 256 256 257 259 261
243 240 240 239 238 239 241 240 240 239 240 241 243 244 246 245 244 243 243 244 245 246 245 245 245 247 248 248 248 249 250 251 251 253 254 255 255 255 256 257 257 259 260
244 241 239 239 239 239 241 241 240 240 240 241 243 243 245 245 244 243 245 246 246 247 247 247 247 247 248 248 249 250 250 251 252 253 254 254 254 255 256 257 258 259 261
245 243 240 239 239 239 241 241 240 240 240 240 242 243 245 244 243 243 244 245 246 247 248 249 249 249 248 249 250 251 251 252 253 252 252 254 255 256 256 257 258 260 262
245 244 241 240 239 239 240 240 240 240 241 241 242 243 245 245 243 242 244 245 244 245 247 248 249 250 250 249 250 251 251 253 254 255 254 255 255 256 255 256 258 260 261
245 244 241 239 238 239 239 240 241 241 241 241 242 243 245 246 245 243 244 245 245 246 247 248 249 249 249 249 249 249 249 251 253 255 254 255 255 256 256 256 258 260 262
244 242 240 239 238 239 240 240 241 242 242 242 242 244 244 245 246 245 245 245 245 246 248 249 248 249 249 249 249 249 249 251 252 254 254 255 256 256 256 257 258 261 261
Height
5840 5841 5842 5842 5843 5845 5846 5847 5848 5849 5850 5851 5852 5853 5854 5855 5856 5856 5857 5858 5858 5859 5859 5859 5859 5860 5860 5860 5860 5860 5860 5860 5860 5860 5859 5859 5859 5858 5858 5857 5857 5856 5855
5837 5838 5839 5840 5841 5842 5843 5844 5846 5847 5848 5849 5850 5851 5852 5853 5854 5855 5856 5856 5857 5857 5858 5858 5858 5859 5859 5859 5859 5859 5860 5859 5859 5859 5859 5859 5859 5858 5858 5857 5856 5856 5855
5834 5835 5836 5837 5838 5839 5840 5842 5843 5844 5845 5846 5848 5849 5850 5851 5852 5853 5854 5855 5855 5856 5856 5857 5857 5858 5858 5858 5858 5859 5859 5859 5859 5858 5858 5858 5858 5858 5857 5857 5856 5855 5855
5830 5831 5832 5834 5835 5836 5837 5839 5840 5841 5842 5844 5845 5846 5847 5848 5850 5850 5851 5852 5853 5854 5855 5855 5856 5856 5857 5857 5857 5857 5858 5858 5858 5857 5857 5857 5857 5857 5856 5856 5856 5855 5854
5825 5827 5828 5830 5831 5832 5834 5835 5836 5838 5839 5840 5842 5843 5844 5846 5847 5848 5849 5850 5851 5852 5853 5853 5854 5854 5855 5855 5856 5856 5856 5856 5856 5856 5856 5856 5856 5856 5855 5855 5855 5854 5854
5820 5822 5824 5825 5827 5828 5830 5832 5833 5834 5836 5837 5838 5840 5841 5842 5844 5845 5846 5847 5848 5849 5850 5851 5852 5852 5853 5853 5854 5854 5854 5855 5855 5855 5855 5855 5855 5855 5854 5854 5854 5853 5853
5814 5816 5818 5820 5822 5824 5825 5827 5828 5830 5831 5833 5835 5836 5837 5839 5840 5841 5843 5844 5845 5846 5847 5848 5849 5850 5851 5851 5852 5852 5853 5853 5853 5853 5853 5854 5853 5853 5853 5853 5852 5852 5852
5807 5810 5812 5814 5816 5818 5820 5822 5823 5825 5827 5828 5830 5832 5833 5835 5836 5838 5839 5840 5842 5843 5844 5845 5846 5847 5848 5849 5849 5850 5850 5851 5851 5851 5852 5852 5852 5852 5852 5851 5851 5851 5850
5799 5802 5805 5808 5810 5812 5814 5816 5818 5820 5822 5823 5825 5827 5828 5830 5832 5833 5835 5836 5838 5839 5841 5842 5843 5844 5845 5846 5846 5847 5848 5848 5849 5849 5850 5850 5850 5850 5850 5849 5849 5849 5849
5791 5794 5797 5800 5803 5805 5807 5810 5812 5814 5816 5818 5819 5821 5823 5825 5827 5828 5830 5832 5833 5835 5836 5838 5839 5840 5841 5842 5843 5844 5845 5846 5846 5847 5847 5847 5847 5847 5847 5847 5847 5847 5847
5783 5786 5789 5792 5795 5798 5800 5803 5805 5807 5809 5811 5813 5815 5817 5819 5821 5823 5825 5826 5828 5829 5831 5833 5835 5836 5837 5838 5839 5840 5841 5842 5843 5844 5844 5844 5844 5845 5845 5845 5845 5845 5844
5774 5777 5780 5784 5787 5790 5793 5795 5798 5800 5802 5804 5806 5808 5810 5813 5815 5817 5819 5820 5822 5823 5826 5828 5829 5831 5832 5834 5835 5836 5837 5838 5839 5840 5840 5841 5841 5841 5842 5842 5842 5842 5841
5764 5768 5771 5775 5778 5782 5785 5787 5790 5792 5795 5797 5799 5801 5803 5805 5808 5810 5812 5814 5816 5818 5820 5822 5824 5826 5827 5829 5830 5832 5833 5834 5835 5836 5837 5837 5838 5838 5838 5838 5838 5838 5838
5754 5757 5761 5765 5769 5772 5775 5779 5781 5784 5786 5788 5791 5793 5795 5797 5800 5802 5805 5807 5809 5812 5814 5816 5818 5820 5822 5823 5825 5826 5828 5829 5830 5831 5832 5833 5833 5834 5834 5834 5835 5835 5835
5743 5747 5751 5755 5759 5763 5766 5769 5772 5775 5777 5779 5782 5784 5787 5789 5792 5794 5797 5799 5802 5804 5807 5810 5812 5814 5816 5818 5819 5821 5822 5824 5825 5826 5827 5828 5829 5829 5830 5830 5831 5831 5831
5732 5736 5740 5745 5749 5752 5756 5759 5762 5765 5768 5771 5773 5776 5778 5781 5783 5786 5789 5792 5794 5797 5799 5802 5805 5807 5809 5811 5813 5815 5816 5818 5819 5820 5822 5823 5824 5824 5825 5825 5826 5826 5826
5721 5725 5729 5733 5738 5742 5746 5749 5752 5756 5759 5762 5764 5767 5769 5772 5775 5778 5780 5783 5786 5789 5792 5794 5797 5800 5802 5804 5806 5808 5810 5812 5813 5814 5816 5817 5818 5819 5819 5820 5821 5821 5821
5710 5714 5718 5722 5727 5731 5735 5739 5742 5746 5749 5752 5755 5758 5761 5763 5766 5769 5772 5775 5778 5781 5784 5787 5789 5792 5794 5797 5799 5801 5803 5805 5806 5808 5809 5810 5811 5813 5813 5814 5815 5815 5816
5699 5703 5707 5711 5716 5720 5725 5729 5732 5736 5740 5743 5746 5749 5752 5754 5757 5760 5763 5766 5769 5772 5775 5778 5781 5784 5786 5789 5791 5794 5796 5798 5799 5801 5802 5803 5804 5806 5807 5807 5808 5809 5810
5688 5692 5696 5701 5706 5710 5714 5718 5722 5726 5730 5733 5737 5740 5743 5745 5748 5751 5754 5757 5760 5764 5767 5770 5772 5775 5778 5781 5783 5786 5788 5789 5791 5793 5794 5796 5797 5798 5800 5801 5801 5802 5803
5678 5682 5686 5691 5695 5700 5704 5708 5712 5716 5720 5724 5727 5730 5733 5736 5739 5742 5745 5748 5751 5754 5758 5761 5764 5766 5769 5772 5775 5777 5779 5781 5783 5784 5786 5787 5789 5790 5792 5793 5794 5795 5796
5668 5672 5676 5681 5685 5690 5694 5698 5702 5706 5710 5714 5717 5721 5724 5727 5730 5733 5736 5739 5742 5745 5748 5752 5754 5757 5760 5763 5765 5768 5770 5772 5774 5775 5777 5779 5780 5782 5783 5785 5786 5787 5788
5658 5661 5666 5670 5675 5679 5684 5687 5691 5695 5699 5704 5707 5711 5714 5717 5720 5724 5727 5730 5733 5736 5739 5742 5745 5747 5750 5753 5755 5758 5760 5763 5765 5767 5768 5770 5771 5773 5774 5775 5777 5778 5779
5648 5651 5655 5660 5664 5669 5673 5677 5681 5685 5689 5693 5697 5701 5704 5707 5710 5713 5716 5720 5723 5726 5729 5732 5735 5738 5740 5743 5745 5747 5750 5752 5755 5757 5759 5760 5762 5763 5764 5766 5767 5769 5770
5639 5642 5645 5649 5654 5658 5662 5666 5670 5674 5678 5682 5686 5690 5694 5697 5699 5702 5706 5709 5712 5715 5718 5721 5724 5727 5729 5732 5735 5737 5739 5741 5744 5746 5749 5751 5753 5754 5755 5756 5758 5759 5760
5630 5632 5636 5639 5643 5647 5651 5655 5659 5663 5666 5671 5675 5679 5683 5686 5689 5692 5696 5699 5702 5705 5708 5710 5713 5716 5718 5721 5724 5726 5729 5731 5734 5736 5738 5740 5742 5744 5745 5746 5748 5749 5750